Location: Navalespino
(40.5894°N, 4.2660°W)
Time: 08:35:41
(UTC+00:00)

Cosmos 2263 Rocket - Pass Details

Date: 18 April 2024
Orbit: 824 x 847 km, 71.0° (Epoch: 19 May)

Event Time Altitude Azimuth Distance (km) Brightness Sun altitude
Rises 20:58:25 0° 352° (N) 3,391 6.0 -20.9°
Reaches altitude 10° 21:02:34 10° 21° (NNE) 2,446 4.8 -21.6°
Maximum altitude 21:04:51 12° 46° (NE) 2,271 4.4 -21.9°
Enters shadow 21:06:09 12° 60° (ENE) 2,325 4.3 -22.1°
